| time (UTC) | temp F | wind direction | speed MPH | gust MPH | rain 1hr in | rain 24hr in | rain mn in | humidity % | barometer mb |
| 20260507191515 | 63 | 360 | 2.0 | 0.0 | 0.00 | 0.00 | 0.01 | 64 | 1012.8 |
| 20260507190014 | 64 | 360 | 1.0 | 0.0 | 0.00 | 0.00 | 0.01 | 62 | 1012.5 |
| 20260507184514 | 65 | 360 | 1.0 | 0.0 | 0.00 | 0.00 | 0.01 | 62 | 1012.4 |
| 20260507183013 | 65 | 360 | 1.0 | 0.0 | 0.00 | 0.00 | 0.01 | 61 | 1012.1 |
| 20260507181513 | 66 | 360 | 1.0 | 0.0 | 0.00 | 0.00 | 0.01 | 61 | 1012.1 |
| 20260507180019 | 67 | 360 | 2.0 | 0.0 | 0.00 | 0.00 | 0.01 | 60 | 1011.9 |
| 20260507174514 | 68 | 360 | 1.0 | 0.0 | 0.00 | 0.00 | 0.01 | 59 | 1011.6 |
| 20260507173027 | 68 | 360 | 1.0 | 0.0 | 0.00 | 0.00 | 0.01 | 58 | 1011.4 |
| 20260507171511 | 69 | 360 | 1.0 | 0.0 | 0.00 | 0.00 | 0.01 | 55 | 1011.4 |
| 20260507170012 | 70 | 360 | 0.0 | 0.0 | 0.00 | 0.00 | 0.01 | 46 | 1011.3 |
| 20260507164511 | 71 | 360 | 1.0 | 0.0 | 0.00 | 0.00 | 0.01 | 47 | 1011.2 |
| 20260507163011 | 71 | 360 | 0.0 | 0.0 | 0.00 | 0.00 | 0.01 | 46 | 1011.2 |
| 20260507161513 | 72 | 360 | 1.0 | 0.0 | 0.00 | 0.00 | 0.01 | 44 | 1011.2 |
| 20260507160010 | 72 | 360 | 1.0 | 0.0 | 0.00 | 0.00 | 0.01 | 43 | 1011.3 |
| 20260507154510 | 73 | 360 | 1.0 | 0.0 | 0.00 | 0.00 | 0.01 | 42 | 1011.3 |
| 20260507153007 | 72 | 360 | 1.0 | 0.0 | 0.00 | 0.00 | 0.01 | 44 | 1011.5 |
| 20260507151507 | 72 | 360 | 1.0 | 0.0 | 0.00 | 0.00 | 0.01 | 45 | 1011.5 |
| 20260507150017 | 72 | 360 | 0.0 | 0.0 | 0.00 | 0.00 | 0.01 | 41 | 1011.5 |
| 20260507144518 | 72 | 360 | 0.0 | 0.0 | 0.00 | 0.00 | 0.01 | 42 | 1011.5 |
| 20260507143005 | 72 | 360 | 0.0 | 0.0 | 0.00 | 0.00 | 0.01 | 43 | 1011.7 |
| 20260507141505 | 72 | 360 | 0.0 | 0.0 | 0.00 | 0.00 | 0.01 | 43 | 1011.7 |
| 20260507140004 | 72 | 360 | 1.0 | 0.0 | 0.00 | 0.00 | 0.01 | 46 | 1011.7 |
| 20260507134507 | 73 | 360 | 1.0 | 0.0 | 0.00 | 0.00 | 0.01 | 42 | 1011.6 |
| 20260507133003 | 72 | 360 | 1.0 | 0.0 | 0.00 | 0.00 | 0.01 | 44 | 1011.7 |
| 20260507131502 | 72 | 360 | 1.0 | 0.0 | 0.00 | 0.00 | 0.01 | 44 | 1011.8 |
| 20260507130002 | 72 | 360 | 2.0 | 0.0 | 0.00 | 0.00 | 0.01 | 45 | 1011.8 |
| 20260507124504 | 72 | 360 | 1.0 | 0.0 | 0.00 | 0.00 | 0.01 | 45 | 1011.8 |
| 20260507123101 | 73 | 360 | 1.0 | 0.0 | 0.00 | 0.00 | 0.01 | 43 | 1011.8 |
| 20260507121621 | 72 | 360 | 1.0 | 0.0 | 0.00 | 0.00 | 0.01 | 43 | 1011.8 |
| 20260507120109 | 72 | 360 | 1.0 | 0.0 | 0.00 | 0.00 | 0.01 | 48 | 1011.9 |
| 20260507114639 | 72 | 360 | 1.0 | 0.0 | 0.00 | 0.00 | 0.01 | 45 | 1012.1 |
| 20260507113059 | 72 | 360 | 1.0 | 0.0 | 0.00 | 0.00 | 0.01 | 43 | 1012.2 |
| 20260507111600 | 71 | 360 | 1.0 | 0.0 | 0.00 | 0.00 | 0.01 | 46 | 1012.3 |
| 20260507110056 | 71 | 360 | 1.0 | 0.0 | 0.00 | 0.00 | 0.01 | 45 | 1012.4 |
| 20260507104553 | 71 | 360 | 1.0 | 0.0 | 0.00 | 0.00 | 0.01 | 44 | 1012.6 |
| 20260507103050 | 70 | 360 | 1.0 | 0.0 | 0.00 | 0.00 | 0.01 | 47 | 1012.8 |
| 20260507101550 | 71 | 360 | 1.0 | 0.0 | 0.00 | 0.00 | 0.01 | 49 | 1012.9 |
| 20260507100048 | 70 | 360 | 1.0 | 0.0 | 0.00 | 0.00 | 0.01 | 48 | 1013.0 |
| 20260507094544 | 70 | 360 | 1.0 | 0.0 | 0.00 | 0.00 | 0.01 | 48 | 1013.0 |
| 20260507093047 | 70 | 360 | 1.0 | 0.0 | 0.00 | 0.00 | 0.01 | 50 | 1013.0 |
| 20260507091544 | 69 | 360 | 0.0 | 0.0 | 0.00 | 0.00 | 0.01 | 55 | 1013.0 |
| 20260507090038 | 68 | 360 | 1.0 | 0.0 | 0.00 | 0.00 | 0.01 | 58 | 1013.1 |
| 20260507084532 | 67 | 360 | 1.0 | 0.0 | 0.00 | 0.00 | 0.01 | 56 | 1012.9 |
| 20260507083032 | 67 | 360 | 1.0 | 0.0 | 0.00 | 0.00 | 0.01 | 57 | 1012.8 |
| 20260507081525 | 67 | 360 | 0.0 | 0.0 | 0.00 | 0.00 | 0.01 | 57 | 1012.8 |
| 20260507080024 | 66 | 360 | 0.0 | 0.0 | 0.00 | 0.00 | 0.01 | 60 | 1012.8 |
| 20260507074520 | 65 | 360 | 0.0 | 0.0 | 0.00 | 0.00 | 0.01 | 63 | 1012.8 |
| 20260507073015 | 65 | 360 | 0.0 | 0.0 | 0.00 | 0.00 | 0.01 | 61 | 1012.7 |
| 20260507071511 | 64 | 360 | 0.0 | 0.0 | 0.00 | 0.00 | 0.01 | 61 | 1012.7 |
| 20260507070012 | 64 | 360 | 1.0 | 0.0 | 0.00 | 0.00 | 0.01 | 60 | 1012.6 |
| 20260507064505 | 64 | 360 | 0.0 | 0.0 | 0.00 | 0.00 | 0.01 | 61 | 1012.5 |
| 20260507063106 | 63 | 360 | 0.0 | 0.0 | 0.00 | 0.00 | 0.01 | 61 | 1012.3 |
| 20260507061556 | 61 | 360 | 0.0 | 0.0 | 0.00 | 0.00 | 0.01 | 69 | 1012.3 |
| 20260507060052 | 60 | 360 | 0.0 | 0.0 | 0.00 | 0.00 | 0.01 | 74 | 1012.2 |
| 20260507054548 | 57 | 360 | 0.0 | 0.0 | 0.00 | 0.00 | 0.01 | 82 | 1012.0 |
| 20260507053043 | 54 | 360 | 0.0 | 0.0 | 0.00 | 0.00 | 0.01 | 90 | 1011.8 |
| 20260507051541 | 51 | 360 | 0.0 | 0.0 | 0.00 | 0.00 | 0.01 | 91 | 1011.6 |
| 20260507050038 | 50 | 360 | 0.0 | 0.0 | 0.00 | 0.00 | 0.01 | 91 | 1011.4 |
| 20260507044536 | 50 | 360 | 0.0 | 0.0 | 0.00 | 0.00 | 0.00 | 90 | 1011.2 |
| 20260507043034 | 50 | 360 | 0.0 | 0.0 | 0.00 | 0.00 | 0.00 | 90 | 1011.2 |
| 20260507041531 | 50 | 360 | 0.0 | 0.0 | 0.00 | 0.00 | 0.00 | 89 | 1011.1 |
| 20260507040030 | 50 | 360 | 0.0 | 0.0 | 0.00 | 0.00 | 0.00 | 89 | 1010.8 |
| 20260507034529 | 50 | 360 | 0.0 | 0.0 | 0.00 | 0.00 | 0.00 | 88 | 1010.8 |
| 20260507033030 | 50 | 360 | 0.0 | 0.0 | 0.00 | 0.00 | 0.00 | 87 | 1010.6 |
| 20260507031526 | 50 | 360 | 0.0 | 0.0 | 0.00 | 0.00 | 0.00 | 86 | 1010.6 |
| 20260507030025 | 51 | 360 | 0.0 | 0.0 | 0.00 | 0.00 | 0.00 | 86 | 1010.6 |
| 20260507024523 | 51 | 360 | 0.0 | 0.0 | 0.00 | 0.00 | 0.00 | 85 | 1010.6 |
| 20260507023021 | 51 | 360 | 0.0 | 0.0 | 0.00 | 0.00 | 0.00 | 84 | 1010.5 |
| 20260507021520 | 52 | 360 | 0.0 | 0.0 | 0.00 | 0.00 | 0.00 | 83 | 1010.7 |
| 20260507020018 | 52 | 360 | 0.0 | 0.0 | 0.00 | 0.00 | 0.00 | 83 | 1010.6 |
| 20260507014526 | 53 | 360 | 0.0 | 0.0 | 0.00 | 0.00 | 0.00 | 83 | 1010.5 |
| 20260507013030 | 53 | 360 | 0.0 | 0.0 | 0.00 | 0.00 | 0.00 | 82 | 1010.4 |
| 20260507011514 | 54 | 360 | 0.0 | 0.0 | 0.00 | 0.00 | 0.00 | 81 | 1010.4 |
| 20260507010016 | 54 | 360 | 0.0 | 0.0 | 0.00 | 0.00 | 0.00 | 80 | 1010.2 |
| 20260507004509 | 54 | 360 | 0.0 | 0.0 | 0.00 | 0.00 | 0.00 | 80 | 1010.3 |
| 20260507003008 | 54 | 360 | 0.0 | 0.0 | 0.00 | 0.00 | 0.00 | 78 | 1010.3 |
| 20260507001510 | 54 | 360 | 0.0 | 0.0 | 0.00 | 0.00 | 0.00 | 78 | 1010.4 |
| 20260507000007 | 54 | 360 | 0.0 | 0.0 | 0.00 | 0.00 | 0.00 | 77 | 1010.4 |
| 20260506234506 | 54 | 360 | 0.0 | 0.0 | 0.00 | 0.00 | 0.00 | 77 | 1010.4 |
| 20260506233008 | 54 | 360 | 0.0 | 0.0 | 0.00 | 0.00 | 0.00 | 77 | 1010.4 |
| 20260506231504 | 55 | 360 | 0.0 | 0.0 | 0.00 | 0.00 | 0.00 | 76 | 1010.4 |
| 20260506230003 | 55 | 360 | 0.0 | 0.0 | 0.00 | 0.00 | 0.00 | 76 | 1010.4 |
| 20260506224502 | 56 | 360 | 0.0 | 0.0 | 0.00 | 0.00 | 0.00 | 76 | 1010.4 |
| 20260506223101 | 56 | 360 | 0.0 | 0.0 | 0.00 | 0.00 | 0.00 | 77 | 1010.4 |
| 20260506221611 | 56 | 360 | 0.0 | 0.0 | 0.00 | 0.00 | 0.00 | 76 | 1010.5 |
| 20260506220056 | 57 | 360 | 0.0 | 0.0 | 0.00 | 0.00 | 0.00 | 74 | 1010.5 |
| 20260506214557 | 58 | 360 | 0.0 | 0.0 | 0.00 | 0.00 | 0.49 | 73 | 1010.4 |
| 20260506213112 | 58 | 360 | 1.0 | 0.0 | 0.00 | 0.00 | 0.49 | 72 | 1010.3 |
| 20260506211553 | 58 | 360 | 0.0 | 0.0 | 0.00 | 0.00 | 0.49 | 72 | 1010.0 |
| 20260506210054 | 59 | 360 | 1.0 | 0.0 | 0.00 | 0.00 | 0.49 | 72 | 1009.8 |
| 20260506204553 | 60 | 360 | 0.0 | 0.0 | 0.00 | 0.00 | 0.49 | 72 | 1009.8 |
| 20260506203053 | 60 | 360 | 0.0 | 0.0 | 0.00 | 0.00 | 0.49 | 72 | 1009.6 |
| 20260506201553 | 60 | 360 | 1.0 | 0.0 | 0.00 | 0.00 | 0.49 | 72 | 1009.7 |
| 20260506200052 | 61 | 360 | 1.0 | 0.0 | 0.00 | 0.00 | 0.49 | 74 | 1009.5 |
| 20260506194551 | 61 | 360 | 1.0 | 0.0 | 0.00 | 0.00 | 0.49 | 75 | 1009.1 |
| 20260506193050 | 61 | 360 | 1.0 | 0.0 | 0.00 | 0.00 | 0.49 | 75 | 1009.1 |